Regional Weather Roundup
Issued by NWS

Home | Current Version | Previous Version | Text Only | Print | Product List | Glossary Off
Versions: 1 2 3 4 5 6 7 8 9 10 11 12 13 14 15 16 17 18 19 20 21 22 23 24 25 26 27 28 29 30 31 32 33 34 35 36 37 38 39 40 41 42 43 44 45 46 47 48 49 50

000
ASUS43 KLMK 012210
RWRKY
KENTUCKY REGIONAL WEATHER ROUNDUP
NATIONAL WEATHER SERVICE LOUISVILLE KY
600 PM EDT SAT AUG 01 2015

NOTE "FAIR" INDICATES FEW OR NO CLOUDS BELOW 12,000 FEET
WITH NO SIGNIFICANT WEATHER AND/OR OBSTRUCTIONS TO VISIBILITY.

KYZ001>023-026-027-061>063-070>075-012300-
WESTERN AND SOUTH CENTRAL KENTUCKY

CITY           SKY/WX    TMP DP  RH WIND       PRES   REMARKS
PADUCAH        SUNNY     90  68  48 NE6       29.97F HX  94
HENDERSON      SUNNY     88  63  42 W5        29.98S
OWENSBORO      MOSUNNY   86  55  34 N9        29.99S
HOPKINSVILLE   SUNNY     88  70  55 NW6       29.98S HX  92
BOWLING GREEN  MOSUNNY   89  58  34 NW9       29.98F
GLASGOW        SUNNY    N/A N/A N/A N8        29.98S
$$

KYZ024-025-028>034-038-045-046-053-012300-
NORTH CENTRAL KENTUCKY

CITY           SKY/WX    TMP DP  RH WIND       PRES   REMARKS
LOUISVILLE/SDF PTSUNNY   87  57  35 NW10      29.97S
LOUISVILLE/LOU MOSUNNY   86  54  33 N7        29.98F
FORT KNOX      PTSUNNY   83  58  42 N7        29.98S
$$

KYZ035>037-039>044-047>052-055>060-089>105-012300-
NORTHEAST KENTUCKY

CITY           SKY/WX    TMP DP  RH WIND       PRES   REMARKS
LEXINGTON      MOSUNNY   82  55  39 NW8       29.99S
COVINGTON      PTSUNNY   81  56  42 NW8       29.98F
FRANKFORT      MOSUNNY   84  55  36 NW3       29.98S
$$

KYZ054-064>069-076>088-106>120-012300-
SOUTHEAST KENTUCKY

CITY           SKY/WX    TMP DP  RH WIND       PRES   REMARKS
JACKSON        SUNNY     83  55  38 CALM      29.99S
LONDON         MOSUNNY   86  57  37 NW12      29.99S
SOMERSET       MOSUNNY   82  55  39 NW8       29.99S
MIDDLESBORO    MOSUNNY   85  63  48 N6        29.99S
MONTICELLO     CLEAR     87  66  49 W7        30.01F
$$



USA.gov is the U.S. government's official web portal to all federal, state and local government web resources and services.